Time,TemperatureF,DewpointF,PressureIn,WindDirection,WindDirectionDegrees,WindSpeedMPH,WindSpeedGustMPH,Humidity,HourlyPrecipIn,Conditions,Clouds,dailyrainin,SoftwareType,DateUTC
2013-10-03 00:04:00,62.7,56.8,29.90,ESE,119,0.0,0.0,81,0.00,,,0.00,Wunderground v.1.15,2013-10-03 07:04:00,
2013-10-03 00:14:00,62.6,56.7,29.90,ESE,119,0.0,0.0,81,0.00,,,0.00,Wunderground v.1.15,2013-10-03 07:14:00,
2013-10-03 00:24:00,62.5,56.9,29.90,ESE,119,0.0,0.0,82,0.00,,,0.00,Wunderground v.1.15,2013-10-03 07:24:00,
2013-10-03 00:34:00,62.4,56.8,29.90,ESE,119,0.0,0.0,82,0.00,,,0.00,Wunderground v.1.15,2013-10-03 07:34:00,
2013-10-03 00:44:00,62.5,56.9,29.90,ESE,119,0.0,0.0,82,0.00,,,0.00,Wunderground v.1.15,2013-10-03 07:44:00,
2013-10-03 00:53:00,62.5,56.9,29.90,ESE,119,0.0,0.0,82,0.00,,,0.00,Wunderground v.1.15,2013-10-03 07:53:00,
2013-10-03 01:04:00,62.3,56.7,29.90,ESE,119,0.0,0.0,82,0.00,,,0.00,Wunderground v.1.15,2013-10-03 08:04:00,
2013-10-03 01:14:00,62.1,56.9,29.90,ESE,119,0.0,0.0,83,0.00,,,0.00,Wunderground v.1.15,2013-10-03 08:14:00,
2013-10-03 01:24:00,61.9,57.0,29.90,ESE,119,0.0,0.0,84,0.00,,,0.00,Wunderground v.1.15,2013-10-03 08:24:00,
2013-10-03 01:34:00,61.8,56.9,29.90,ESE,119,0.0,0.0,84,0.00,,,0.00,Wunderground v.1.15,2013-10-03 08:34:00,
2013-10-03 01:44:00,61.6,56.7,29.90,ESE,119,0.0,0.0,84,0.00,,,0.00,Wunderground v.1.15,2013-10-03 08:44:00,
2013-10-03 01:54:00,61.5,56.9,29.90,ESE,119,0.0,0.0,85,0.00,,,0.00,Wunderground v.1.15,2013-10-03 08:54:00,
2013-10-03 02:04:00,61.5,56.9,29.90,ESE,119,0.0,0.0,85,0.00,,,0.00,Wunderground v.1.15,2013-10-03 09:04:00,
2013-10-03 02:14:00,61.6,56.7,29.90,ESE,119,0.0,0.0,84,0.00,,,0.00,Wunderground v.1.15,2013-10-03 09:14:00,
2013-10-03 02:24:00,61.9,57.0,29.90,ESE,119,0.0,0.0,84,0.00,,,0.00,Wunderground v.1.15,2013-10-03 09:24:00,
2013-10-03 02:34:00,62.2,57.0,29.90,ESE,119,0.0,0.0,83,0.00,,,0.00,Wunderground v.1.15,2013-10-03 09:34:00,
2013-10-03 02:44:00,62.3,57.1,29.90,ESE,119,0.0,0.0,83,0.00,,,0.00,Wunderground v.1.15,2013-10-03 09:44:00,
2013-10-03 02:54:00,62.4,57.2,29.89,ESE,119,0.0,0.0,83,0.00,,,0.00,Wunderground v.1.15,2013-10-03 09:54:00,
2013-10-03 03:04:00,62.4,57.2,29.89,ESE,119,0.0,0.0,83,0.00,,,0.00,Wunderground v.1.15,2013-10-03 10:04:00,
2013-10-03 03:14:00,62.4,57.2,29.89,ESE,119,0.0,0.0,83,0.00,,,0.00,Wunderground v.1.15,2013-10-03 10:14:00,
2013-10-03 03:24:00,62.5,56.9,29.89,ESE,119,0.0,0.0,82,0.00,,,0.00,Wunderground v.1.15,2013-10-03 10:24:00,
2013-10-03 03:34:00,62.4,57.2,29.89,ESE,119,0.0,0.0,83,0.00,,,0.00,Wunderground v.1.15,2013-10-03 10:34:00,
2013-10-03 03:44:00,62.2,57.0,29.89,ESE,119,0.0,0.0,83,0.00,,,0.00,Wunderground v.1.15,2013-10-03 10:44:00,
2013-10-03 03:54:00,62.1,56.9,29.89,ESE,119,0.0,0.0,83,0.00,,,0.00,Wunderground v.1.15,2013-10-03 10:54:00,
2013-10-03 04:04:00,61.9,56.7,29.88,ESE,119,0.0,0.0,83,0.00,,,0.00,Wunderground v.1.15,2013-10-03 11:04:00,
2013-10-03 04:14:00,61.8,56.9,29.87,ESE,119,0.0,0.0,84,0.00,,,0.00,Wunderground v.1.15,2013-10-03 11:14:00,
2013-10-03 04:24:00,62.0,57.1,29.87,ESE,118,0.0,0.0,84,0.00,,,0.00,Wunderground v.1.15,2013-10-03 11:24:00,
2013-10-03 04:34:00,62.3,57.7,29.88,SE,136,0.0,0.0,85,0.00,,,0.00,Wunderground v.1.15,2013-10-03 11:34:00,
2013-10-03 04:44:00,62.5,57.9,29.89,SE,136,0.0,0.0,85,0.00,,,0.00,Wunderground v.1.15,2013-10-03 11:44:00,
2013-10-03 04:54:00,62.7,58.1,29.89,SE,136,0.0,0.0,85,0.00,,,0.00,Wunderground v.1.15,2013-10-03 11:54:00,
2013-10-03 05:04:00,62.7,58.1,29.88,SE,136,0.0,0.0,85,0.00,,,0.00,Wunderground v.1.15,2013-10-03 12:04:00,
2013-10-03 05:14:00,62.8,58.2,29.88,SE,136,0.0,0.0,85,0.00,,,0.00,Wunderground v.1.15,2013-10-03 12:14:00,
2013-10-03 05:24:00,62.7,58.1,29.88,SE,136,0.0,0.0,85,0.00,,,0.00,Wunderground v.1.15,2013-10-03 12:24:00,
2013-10-03 05:34:00,62.8,58.5,29.89,SE,136,0.0,0.0,86,0.00,,,0.00,Wunderground v.1.15,2013-10-03 12:34:00,
2013-10-03 05:44:00,63.0,59.4,29.89,SE,146,0.0,0.0,88,0.00,,,0.00,Wunderground v.1.15,2013-10-03 12:44:00,
2013-10-03 05:54:00,62.9,59.3,29.89,South,173,0.0,0.0,88,0.00,,,0.00,Wunderground v.1.15,2013-10-03 12:54:00,
2013-10-03 06:04:00,62.8,59.2,29.88,SE,142,0.0,0.0,88,0.00,,,0.00,Wunderground v.1.15,2013-10-03 13:04:00,
2013-10-03 06:14:00,62.8,59.2,29.88,SSE,150,0.0,0.0,88,0.00,,,0.00,Wunderground v.1.15,2013-10-03 13:14:00,
2013-10-03 06:24:00,62.8,58.9,29.89,SSE,161,0.0,0.0,87,0.00,,,0.00,Wunderground v.1.15,2013-10-03 13:24:00,
2013-10-03 06:34:00,62.8,58.9,29.88,South,187,0.0,0.0,87,0.00,,,0.00,Wunderground v.1.15,2013-10-03 13:34:00,
2013-10-03 06:44:00,62.7,58.8,29.88,South,184,0.0,0.0,87,0.00,,,0.00,Wunderground v.1.15,2013-10-03 13:44:00,
2013-10-03 06:54:00,62.6,58.7,29.88,South,187,0.0,0.0,87,0.00,,,0.00,Wunderground v.1.15,2013-10-03 13:54:00,
2013-10-03 07:04:00,62.6,58.7,29.88,South,182,0.0,0.0,87,0.00,,,0.00,Wunderground v.1.15,2013-10-03 14:04:00,
2013-10-03 07:14:00,62.6,58.7,29.88,SSE,160,0.0,0.0,87,0.00,,,0.00,Wunderground v.1.15,2013-10-03 14:14:00,
2013-10-03 07:24:00,62.8,58.5,29.89,South,182,0.0,0.0,86,0.00,,,0.00,Wunderground v.1.15,2013-10-03 14:24:00,
2013-10-03 07:34:00,63.0,58.7,29.89,SSW,198,0.0,0.0,86,0.00,,,0.00,Wunderground v.1.15,2013-10-03 14:34:00,
2013-10-03 07:44:00,63.2,58.9,29.90,SSW,198,0.0,0.0,86,0.00,,,0.00,Wunderground v.1.15,2013-10-03 14:44:00,
2013-10-03 07:54:00,63.4,58.8,29.90,SE,142,0.0,0.0,85,0.00,,,0.00,Wunderground v.1.15,2013-10-03 14:54:00,
2013-10-03 08:04:00,63.6,58.7,29.90,SE,142,0.0,0.0,84,0.00,,,0.00,Wunderground v.1.15,2013-10-03 15:04:00,
2013-10-03 08:14:00,63.8,58.9,29.90,SE,140,1.0,1.0,84,0.00,,,0.00,Wunderground v.1.15,2013-10-03 15:14:00,
2013-10-03 08:24:00,64.1,58.8,29.90,SSE,161,0.0,0.0,83,0.00,,,0.00,Wunderground v.1.15,2013-10-03 15:24:00,
2013-10-03 08:34:00,64.6,58.6,29.90,SE,134,1.0,1.0,81,0.00,,,0.00,Wunderground v.1.15,2013-10-03 15:34:00,
2013-10-03 08:43:00,64.7,59.1,29.90,SE,146,0.0,0.0,82,0.00,,,0.00,Wunderground v.1.15,2013-10-03 15:43:00,
2013-10-03 08:54:00,64.9,58.9,29.90,SSE,157,0.0,0.0,81,0.00,,,0.00,Wunderground v.1.15,2013-10-03 15:54:00,
2013-10-03 09:04:00,64.8,59.2,29.90,South,180,1.0,1.0,82,0.00,,,0.00,Wunderground v.1.15,2013-10-03 16:04:00,
2013-10-03 09:14:00,64.6,59.3,29.91,South,190,0.0,0.0,83,0.00,,,0.00,Wunderground v.1.15,2013-10-03 16:14:00,
2013-10-03 09:24:00,64.9,59.6,29.91,South,187,0.0,0.0,83,0.00,,,0.00,Wunderground v.1.15,2013-10-03 16:24:00,
2013-10-03 09:34:00,66.0,59.7,29.91,South,191,1.0,1.0,80,0.00,,,0.00,Wunderground v.1.15,2013-10-03 16:34:00,
2013-10-03 09:44:00,66.2,59.8,29.91,South,188,1.0,1.0,80,0.00,,,0.00,Wunderground v.1.15,2013-10-03 16:44:00,
2013-10-03 09:54:00,66.4,59.7,29.91,SSW,198,1.0,1.0,79,0.00,,,0.00,Wunderground v.1.15,2013-10-03 16:54:00,
2013-10-03 10:04:00,66.1,59.7,29.90,SSW,194,2.0,2.0,80,0.00,,,0.00,Wunderground v.1.15,2013-10-03 17:04:00,
2013-10-03 10:14:00,65.9,59.6,29.91,SSW,194,2.0,2.0,80,0.00,,,0.00,Wunderground v.1.15,2013-10-03 17:14:00,
2013-10-03 10:24:00,65.8,59.8,29.90,South,181,2.0,5.0,81,0.00,,,0.00,Wunderground v.1.15,2013-10-03 17:24:00,
2013-10-03 10:34:00,65.9,60.2,29.90,SSE,155,2.0,6.0,82,0.00,,,0.00,Wunderground v.1.15,2013-10-03 17:34:00,
2013-10-03 10:44:00,66.2,60.5,29.90,SSE,157,2.0,2.0,82,0.00,,,0.00,Wunderground v.1.15,2013-10-03 17:44:00,
2013-10-03 10:54:00,66.9,60.9,29.90,SSW,200,2.0,2.0,81,0.00,,,0.00,Wunderground v.1.15,2013-10-03 17:54:00,
2013-10-03 11:04:00,66.9,60.9,29.89,SSE,155,2.0,8.0,81,0.00,,,0.00,Wunderground v.1.15,2013-10-03 18:04:00,
2013-10-03 11:14:00,67.2,61.2,29.89,South,179,2.0,2.0,81,0.00,,,0.00,Wunderground v.1.15,2013-10-03 18:14:00,
2013-10-03 11:24:00,67.2,61.5,29.89,WSW,239,1.0,1.0,82,0.00,,,0.00,Wunderground v.1.15,2013-10-03 18:24:00,
2013-10-03 11:34:00,67.6,61.6,29.89,SSW,207,1.0,6.0,81,0.00,,,0.00,Wunderground v.1.15,2013-10-03 18:34:00,
2013-10-03 11:44:00,67.1,61.8,29.89,WSW,243,3.0,3.0,83,0.00,,,0.00,Wunderground v.1.15,2013-10-03 18:44:00,
2013-10-03 11:54:00,67.1,61.4,29.88,WSW,245,1.0,1.0,82,0.00,,,0.00,Wunderground v.1.15,2013-10-03 18:54:00,
2013-10-03 12:04:00,66.3,61.0,29.88,West,277,2.0,2.0,83,0.00,,,0.00,Wunderground v.1.15,2013-10-03 19:04:00,
2013-10-03 12:14:00,66.7,61.4,29.88,WSW,254,1.0,3.0,83,0.00,,,0.00,Wunderground v.1.15,2013-10-03 19:14:00,
2013-10-03 12:24:00,67.0,61.0,29.87,WNW,289,1.0,1.0,81,0.00,,,0.00,Wunderground v.1.15,2013-10-03 19:24:00,
2013-10-03 12:34:00,67.2,61.5,29.87,NW,322,2.0,5.0,82,0.00,,,0.00,Wunderground v.1.15,2013-10-03 19:34:00,
2013-10-03 12:44:00,67.0,61.3,29.87,West,267,2.0,2.0,82,0.00,,,0.00,Wunderground v.1.15,2013-10-03 19:44:00,
2013-10-03 12:54:00,66.3,61.0,29.87,WSW,239,2.0,2.0,83,0.00,,,0.00,Wunderground v.1.15,2013-10-03 19:54:00,
2013-10-03 13:04:00,66.2,61.2,29.86,WNW,290,1.0,2.0,84,0.00,,,0.00,Wunderground v.1.15,2013-10-03 20:04:00,
2013-10-03 13:14:00,66.4,61.1,29.86,SW,219,1.0,2.0,83,0.00,,,0.00,Wunderground v.1.15,2013-10-03 20:14:00,
2013-10-03 13:24:00,66.1,60.8,29.85,South,190,1.0,1.0,83,0.00,,,0.00,Wunderground v.1.15,2013-10-03 20:24:00,
2013-10-03 13:34:00,65.9,60.9,29.85,WNW,283,1.0,1.0,84,0.00,,,0.00,Wunderground v.1.15,2013-10-03 20:34:00,
2013-10-03 13:44:00,66.0,60.7,29.85,SSW,206,2.0,2.0,83,0.00,,,0.00,Wunderground v.1.15,2013-10-03 20:44:00,
2013-10-03 13:54:00,66.6,60.9,29.85,SW,222,2.0,3.0,82,0.00,,,0.00,Wunderground v.1.15,2013-10-03 20:54:00,
2013-10-03 14:04:00,66.3,60.6,29.85,West,263,1.0,4.0,82,0.00,,,0.00,Wunderground v.1.15,2013-10-03 21:04:00,
2013-10-03 14:14:00,66.5,61.2,29.85,SSW,197,2.0,2.0,83,0.00,,,0.00,Wunderground v.1.15,2013-10-03 21:14:00,
2013-10-03 14:24:00,66.4,60.7,29.84,WNW,297,2.0,2.0,82,0.00,,,0.00,Wunderground v.1.15,2013-10-03 21:24:00,
2013-10-03 14:34:00,66.8,60.8,29.84,SW,223,1.0,4.0,81,0.00,,,0.00,Wunderground v.1.15,2013-10-03 21:34:00,
2013-10-03 14:44:00,66.6,60.6,29.84,WNW,298,2.0,2.0,81,0.00,,,0.00,Wunderground v.1.15,2013-10-03 21:44:00,
2013-10-03 14:54:00,66.2,60.5,29.84,West,277,3.0,3.0,82,0.00,,,0.00,Wunderground v.1.15,2013-10-03 21:54:00,
2013-10-03 15:04:00,66.5,60.5,29.83,NNW,343,2.0,2.0,81,0.00,,,0.00,Wunderground v.1.15,2013-10-03 22:04:00,
2013-10-03 15:14:00,66.9,60.9,29.83,West,276,1.0,1.0,81,0.00,,,0.00,Wunderground v.1.15,2013-10-03 22:14:00,
2013-10-03 15:24:00,66.8,61.1,29.83,West,259,1.0,1.0,82,0.00,,,0.00,Wunderground v.1.15,2013-10-03 22:24:00,
2013-10-03 15:34:00,66.7,60.7,29.83,SW,219,2.0,2.0,81,0.00,,,0.00,Wunderground v.1.15,2013-10-03 22:34:00,
2013-10-03 15:44:00,66.1,60.8,29.83,WNW,291,2.0,2.0,83,0.00,,,0.00,Wunderground v.1.15,2013-10-03 22:44:00,
2013-10-03 15:54:00,66.0,60.3,29.82,West,278,1.0,1.0,82,0.00,,,0.00,Wunderground v.1.15,2013-10-03 22:54:00,
2013-10-03 16:04:00,66.0,60.3,29.82,SW,218,1.0,1.0,82,0.00,,,0.00,Wunderground v.1.15,2013-10-03 23:04:00,
2013-10-03 16:14:00,66.1,60.4,29.82,WSW,246,1.0,1.0,82,0.00,,,0.00,Wunderground v.1.15,2013-10-03 23:14:00,
2013-10-03 16:24:00,65.8,60.5,29.82,WSW,257,1.0,1.0,83,0.00,,,0.00,Wunderground v.1.15,2013-10-03 23:24:00,
2013-10-03 16:34:00,65.8,60.5,29.82,West,262,2.0,2.0,83,0.00,,,0.00,Wunderground v.1.15,2013-10-03 23:34:00,
2013-10-03 16:44:00,66.1,60.4,29.82,WSW,248,0.0,5.0,82,0.00,,,0.00,Wunderground v.1.15,2013-10-03 23:44:00,
2013-10-03 16:54:00,65.6,60.3,29.82,West,263,1.0,1.0,83,0.00,,,0.00,Wunderground v.1.15,2013-10-03 23:54:00,
2013-10-03 17:04:00,65.3,60.3,29.82,WNW,286,0.0,0.0,84,0.00,,,0.00,Wunderground v.1.15,2013-10-04 00:04:00,
2013-10-03 17:14:00,64.9,60.3,29.81,West,273,1.0,1.0,85,0.00,,,0.00,Wunderground v.1.15,2013-10-04 00:14:00,
2013-10-03 17:24:00,64.8,60.2,29.81,WSW,244,1.0,2.0,85,0.00,,,0.00,Wunderground v.1.15,2013-10-04 00:24:00,
2013-10-03 17:34:00,64.8,60.2,29.81,West,272,1.0,1.0,85,0.00,,,0.00,Wunderground v.1.15,2013-10-04 00:34:00,
2013-10-03 17:44:00,64.9,59.9,29.81,SSW,205,0.0,0.0,84,0.00,,,0.00,Wunderground v.1.15,2013-10-04 00:44:00,
2013-10-03 17:54:00,65.1,60.1,29.81,WSW,238,0.0,2.0,84,0.00,,,0.00,Wunderground v.1.15,2013-10-04 00:54:00,
2013-10-03 18:04:00,64.9,59.9,29.82,SW,227,0.0,0.0,84,0.00,,,0.00,Wunderground v.1.15,2013-10-04 01:04:00,
2013-10-03 18:14:00,64.4,59.5,29.82,WNW,292,0.0,0.0,84,0.00,,,0.00,Wunderground v.1.15,2013-10-04 01:14:00,
2013-10-03 18:24:00,64.2,59.6,29.82,West,263,0.0,0.0,85,0.00,,,0.00,Wunderground v.1.15,2013-10-04 01:24:00,
2013-10-03 18:34:00,64.1,59.8,29.83,WSW,256,0.0,0.0,86,0.00,,,0.00,Wunderground v.1.15,2013-10-04 01:34:00,
2013-10-03 18:44:00,63.9,59.6,29.82,WSW,255,0.0,0.0,86,0.00,,,0.00,Wunderground v.1.15,2013-10-04 01:44:00,
2013-10-03 18:54:00,63.8,59.5,29.83,SW,221,0.0,0.0,86,0.00,,,0.00,Wunderground v.1.15,2013-10-04 01:54:00,
2013-10-03 19:04:00,63.8,59.5,29.83,West,273,0.0,0.0,86,0.00,,,0.00,Wunderground v.1.15,2013-10-04 02:04:00,
2013-10-03 19:14:00,63.8,59.5,29.83,SW,233,0.0,0.0,86,0.00,,,0.00,Wunderground v.1.15,2013-10-04 02:14:00,
2013-10-03 19:24:00,63.7,59.4,29.83,West,259,0.0,0.0,86,0.00,,,0.00,Wunderground v.1.15,2013-10-04 02:24:00,
2013-10-03 19:34:00,63.7,59.4,29.83,West,269,0.0,0.0,86,0.00,,,0.00,Wunderground v.1.15,2013-10-04 02:34:00,
2013-10-03 19:44:00,63.8,59.5,29.83,SW,235,0.0,0.0,86,0.00,,,0.00,Wunderground v.1.15,2013-10-04 02:44:00,
2013-10-03 19:54:00,63.8,59.5,29.83,WSW,248,0.0,0.0,86,0.00,,,0.00,Wunderground v.1.15,2013-10-04 02:54:00,
2013-10-03 20:04:00,63.8,59.5,29.83,WSW,249,0.0,0.0,86,0.00,,,0.00,Wunderground v.1.15,2013-10-04 03:04:00,
2013-10-03 20:14:00,63.8,59.5,29.83,WSW,249,0.0,0.0,86,0.00,,,0.00,Wunderground v.1.15,2013-10-04 03:14:00,
2013-10-03 20:24:00,63.8,59.5,29.83,SW,214,0.0,0.0,86,0.00,,,0.00,Wunderground v.1.15,2013-10-04 03:24:00,
2013-10-03 20:34:00,63.9,59.6,29.84,SSW,213,0.0,0.0,86,0.00,,,0.00,Wunderground v.1.15,2013-10-04 03:34:00,
2013-10-03 20:44:00,63.9,59.6,29.84,SSE,168,0.0,0.0,86,0.00,,,0.00,Wunderground v.1.15,2013-10-04 03:44:00,
2013-10-03 20:54:00,64.0,59.7,29.84,South,190,0.0,0.0,86,0.00,,,0.00,Wunderground v.1.15,2013-10-04 03:54:00,
2013-10-03 22:14:00,63.6,59.7,29.85,South,191,0.0,0.0,87,0.00,,,0.00,Wunderground v.1.15,2013-10-04 05:14:00,
2013-10-03 22:24:00,63.6,59.3,29.85,SW,225,0.0,0.0,86,0.00,,,0.00,Wunderground v.1.15,2013-10-04 05:24:00,
2013-10-03 22:34:00,63.6,59.3,29.85,SSW,198,0.0,0.0,86,0.00,,,0.00,Wunderground v.1.15,2013-10-04 05:34:00,
2013-10-03 22:44:00,63.6,59.3,29.85,South,188,0.0,0.0,86,0.00,,,0.00,Wunderground v.1.15,2013-10-04 05:44:00,
2013-10-03 22:54:00,63.6,59.3,29.85,South,183,0.0,0.0,86,0.00,,,0.00,Wunderground v.1.15,2013-10-04 05:54:00,
2013-10-03 23:04:00,63.6,59.3,29.85,South,184,0.0,0.0,86,0.00,,,0.00,Wunderground v.1.15,2013-10-04 06:04:00,
2013-10-03 23:14:00,63.7,59.4,29.86,SSW,211,0.0,0.0,86,0.00,,,0.00,Wunderground v.1.15,2013-10-04 06:14:00,
2013-10-03 23:24:00,63.7,59.4,29.85,SSE,164,0.0,0.0,86,0.00,,,0.00,Wunderground v.1.15,2013-10-04 06:24:00,
2013-10-03 23:34:00,63.7,59.4,29.85,SW,229,0.0,0.0,86,0.00,,,0.00,Wunderground v.1.15,2013-10-04 06:34:00,
2013-10-03 23:44:00,63.7,59.4,29.85,WSW,258,0.0,0.0,86,0.00,,,0.00,Wunderground v.1.15,2013-10-04 06:44:00,
2013-10-03 23:54:00,63.7,59.4,29.86,SSE,153,0.0,0.0,86,0.00,,,0.00,Wunderground v.1.15,2013-10-04 06:54:00,